Location: Cabri�res
(43.7840°N, 5.4986°E)
Time: 10:12:28
(UTC+00:00)

Cosmos 1943 - Pass Details

Date: 09 April 2020
Orbit: 832 x 851 km, 71.0° (Epoch: 04 June)

Event Time Altitude Azimuth Distance (km) Brightness Sun altitude
Rises 19:07:16 0° 222° (SW) 3,382 6.6 -9.9°
Reaches altitude 10° 19:09:48 10° 228° (SW) 2,454 6.0 -10.3°
Maximum altitude 19:15:12 46° 301° (WNW) 1,130 4.5 -11.2°
Drops below altitude 10° 19:20:40 10° 15° (NNE) 2,480 5.8 -12.1°
Sets 19:23:15 0° 21° (NNE) 3,422 6.4 -12.5°
